M I D A S
Marine Information and Data Acquisition System
Tripno 1710 of the Zeeleeuw from 2009-06-16 05:47:27 to 2009-06-16 17:07:37
Back to CruiseResearch ActivitiesStationsMapUnderway DataData graphs

EquipmentUnitsComment
TimeDGPSUTC
LatitudeDGPSDM.mWGS84
LongitudeDGPSDM.mWGS84
HeadingGyrodeg 
SOGDGPSknotsSpeed over ground
COGDGPSdegCourse over ground
DepthEcho soundermeters200 kHz
Missing or incorrect values are displayed as -999
Navigation data collected by the RV Zeeleeuw from 2009-06-16 05:12:25 to 2009-06-16 17:15:40
                                                                                    Next 1000 lines
Time Latitude Longitude Heading SOG COG Depth
2009-06-16 05:12:34 51°13.663 2°55.955 111.1 1.1 291 8.5
2009-06-16 05:12:39 51°13.664 2°55.952 111.4 1.6 297 8.5
2009-06-16 05:12:45 51°13.665 2°55.947 111.9 2 294 8.6
2009-06-16 05:12:50 51°13.667 2°55.943 112.2 2.3 297 -999
2009-06-16 05:12:55 51°13.668 2°55.937 112.6 2.7 296 -999
2009-06-16 05:13:01 51°13.671 2°55.931 112.6 3 297 -999
2009-06-16 05:13:07 51°13.673 2°55.923 112.6 3.2 295 -999
2009-06-16 05:13:12 51°13.675 2°55.916 112 3.4 294 -999
2009-06-16 05:13:18 51°13.677 2°55.907 111.7 3.5 293 -999
2009-06-16 05:13:23 51°13.679 2°55.9 111 3.7 292 -999
2009-06-16 05:13:28 51°13.681 2°55.892 110.4 3.7 292 -999
2009-06-16 05:13:33 51°13.683 2°55.885 110 3.6 290 -999
2009-06-16 05:13:38 51°13.684 2°55.877 109.8 3.5 291 -999
2009-06-16 05:13:43 51°13.686 2°55.87 109.7 3.5 290 -999
2009-06-16 05:13:48 51°13.688 2°55.863 109.4 3.5 290 -999
2009-06-16 05:13:53 51°13.689 2°55.856 108.6 3.4 288 -999
2009-06-16 05:13:58 51°13.691 2°55.848 107.8 3.3 289 -999
2009-06-16 05:14:03 51°13.692 2°55.842 107.2 3.3 287 -999
2009-06-16 05:14:08 51°13.693 2°55.835 106 3.2 287 -999
2009-06-16 05:14:13 51°13.695 2°55.828 105 3.3 285 -999
2009-06-16 05:14:18 51°13.696 2°55.821 103.9 3.3 286 -999
2009-06-16 05:14:23 51°13.697 2°55.814 103 3.3 283 -999
2009-06-16 05:14:28 51°13.698 2°55.807 101.7 3.2 284 -999
2009-06-16 05:14:33 51°13.699 2°55.8 100.2 3.1 283 -999
2009-06-16 05:14:38 51°13.699 2°55.794 99.3 2.9 282 -999
2009-06-16 05:14:43 51°13.7 2°55.788 98.1 2.7 280 -999
2009-06-16 05:14:48 51°13.701 2°55.782 97.2 2.6 282 -999
2009-06-16 05:14:53 51°13.701 2°55.777 96.6 2.4 281 -999
2009-06-16 05:14:58 51°13.702 2°55.773 95.9 1.8 282 14.1
2009-06-16 05:15:02 51°13.702 2°55.771 94.7 1.2 282 14.5
2009-06-16 05:15:07 51°13.703 2°55.769 92.5 0.8 295 14.7
2009-06-16 05:15:12 51°13.703 2°55.768 89.4 0.4 303 14.8
2009-06-16 05:15:17 51°13.703 2°55.768 85.2 0.3 352 15
2009-06-16 05:15:22 51°13.704 2°55.768 80.7 0.3 17 15.1
2009-06-16 05:15:27 51°13.704 2°55.769 76 0.4 33 15.2
2009-06-16 05:15:32 51°13.705 2°55.769 71.6 0.6 35 15.4
2009-06-16 05:15:37 51°13.705 2°55.77 67.5 0.6 41 15.3
2009-06-16 05:15:41 51°13.706 2°55.771 63.4 0.6 32 15.3
2009-06-16 05:15:46 51°13.706 2°55.771 59.7 0.5 35 15.2
2009-06-16 05:15:51 51°13.707 2°55.772 57.1 0.3 13 15.2
2009-06-16 05:15:56 51°13.707 2°55.771 54.6 0.1 321 15.1
2009-06-16 05:16:01 51°13.707 2°55.771 51.9 0.3 267 15
2009-06-16 05:16:05 51°13.707 2°55.77 49.4 0.6 243 15.3
2009-06-16 05:16:10 51°13.706 2°55.768 47.3 0.9 235 15.3
2009-06-16 05:16:15 51°13.705 2°55.766 45.3 1.1 232 15.5
2009-06-16 05:16:20 51°13.704 2°55.764 43.5 1.3 227 15.6
2009-06-16 05:16:25 51°13.703 2°55.762 42 1.3 230 15.5
2009-06-16 05:16:30 51°13.701 2°55.76 40.6 1.2 229 -999
2009-06-16 05:16:36 51°13.699 2°55.758 39.3 1.1 231 -999
2009-06-16 05:16:41 51°13.699 2°55.756 38.3 0.8 229 -999
2009-06-16 05:16:47 51°13.698 2°55.755 37.1 0.5 247 -999
2009-06-16 05:16:53 51°13.699 2°55.755 34.9 0.3 1 -999
2009-06-16 05:16:58 51°13.699 2°55.755 31.3 0.7 4 -999
2009-06-16 05:17:03 51°13.701 2°55.755 26.3 1.1 14 -999
2009-06-16 05:17:08 51°13.703 2°55.756 19.7 1.4 8 -999
2009-06-16 05:17:13 51°13.705 2°55.756 14.7 1.6 5 15.3
2009-06-16 05:17:17 51°13.707 2°55.756 9.5 1.9 358 15.6
2009-06-16 05:17:22 51°13.71 2°55.756 4.4 2.1 354 4.8
2009-06-16 05:17:27 51°13.713 2°55.755 358.2 2.3 346 15.4
2009-06-16 05:17:32 51°13.716 2°55.753 351.6 2.5 343 15.4
2009-06-16 05:17:37 51°13.719 2°55.751 344.9 2.7 335 15
2009-06-16 05:17:42 51°13.723 2°55.748 338.4 2.9 332 14.3
2009-06-16 05:17:46 51°13.726 2°55.745 332.6 3.3 328 14.3
2009-06-16 05:17:51 51°13.73 2°55.74 327.8 3.7 324 14.6
2009-06-16 05:17:56 51°13.735 2°55.735 324.8 4.2 324 14.1
2009-06-16 05:18:01 51°13.74 2°55.728 323.2 4.5 322 13.8
2009-06-16 05:18:06 51°13.745 2°55.722 322.8 4.8 323 13.5
2009-06-16 05:18:10 51°13.75 2°55.716 323.1 5.1 322 12.7
2009-06-16 05:18:16 51°13.757 2°55.708 323.6 5.4 323 12.4
2009-06-16 05:18:20 51°13.762 2°55.702 324 5.6 323 12.4
2009-06-16 05:18:25 51°13.768 2°55.694 324.5 5.8 324 12.2
2009-06-16 05:18:30 51°13.775 2°55.687 325.2 6 326 12.3
2009-06-16 05:18:34 51°13.781 2°55.681 326.6 5 326 12.3
2009-06-16 05:18:40 51°13.79 2°55.672 327.8 4.1 328 12.4
2009-06-16 05:18:43 51°13.795 2°55.667 329.1 3.8 328 12.7
2009-06-16 05:18:49 51°13.804 2°55.659 330.1 6 330 12.9
2009-06-16 05:18:54 51°13.812 2°55.651 330.8 6.9 330 12.9
2009-06-16 05:18:58 51°13.819 2°55.645 332.1 7 332 12.9
2009-06-16 05:19:04 51°13.83 2°55.637 333.5 7.1 333 12.5
2009-06-16 05:19:09 51°13.839 2°55.629 333.9 7.3 333 12.8
2009-06-16 05:19:14 51°13.848 2°55.623 335.1 7.4 335 12.8
2009-06-16 05:19:19 51°13.858 2°55.615 335.5 7.6 334 13.1
2009-06-16 05:19:24 51°13.867 2°55.609 335.6 7.7 334 13
2009-06-16 05:19:29 51°13.876 2°55.601 335.6 7.8 334 13.1
2009-06-16 05:19:34 51°13.886 2°55.593 335.9 7.8 335 13.2
2009-06-16 05:19:39 51°13.896 2°55.585 336.1 8 334 13.3
2009-06-16 05:19:45 51°13.908 2°55.576 335.8 8.1 335 13.1
2009-06-16 05:19:49 51°13.916 2°55.569 335.8 8.1 334 13.2
2009-06-16 05:19:54 51°13.927 2°55.562 336.6 8.2 336 13.1
2009-06-16 05:19:59 51°13.937 2°55.554 336.7 8.3 335 13.1
2009-06-16 05:20:04 51°13.948 2°55.547 336.1 8.4 335 13.1
2009-06-16 05:20:09 51°13.958 2°55.539 336.1 8.5 335 13.1
2009-06-16 05:20:14 51°13.969 2°55.531 336.9 8.5 336 13.1
2009-06-16 05:20:19 51°13.98 2°55.524 337.1 8.6 335 13.1
2009-06-16 05:20:24 51°13.991 2°55.515 336.5 8.6 335 13
2009-06-16 05:20:30 51°14.004 2°55.506 336.1 8.7 335 12.9
2009-06-16 05:20:34 51°14.013 2°55.5 336.4 8.8 336 12.9
2009-06-16 05:20:39 51°14.024 2°55.491 336.9 8.9 335 13
2009-06-16 05:20:45 51°14.037 2°55.482 336.5 8.9 336 12.9
2009-06-16 05:20:49 51°14.047 2°55.475 337.1 9 336 12.9
2009-06-16 05:20:54 51°14.058 2°55.467 337.5 9.1 336 12.9
2009-06-16 05:20:59 51°14.07 2°55.459 337 9.2 334 12.9
2009-06-16 05:21:04 51°14.081 2°55.45 336.6 9.2 336 12.9
2009-06-16 05:21:09 51°14.093 2°55.442 336.8 9.3 335 12.8
2009-06-16 05:21:14 51°14.105 2°55.433 336.7 9.3 335 12.8
2009-06-16 05:21:19 51°14.116 2°55.424 336.4 9.3 335 12.8
2009-06-16 05:21:25 51°14.13 2°55.413 336.1 9.4 334 12.8
2009-06-16 05:21:29 51°14.139 2°55.406 335.4 9.3 333 12.8
2009-06-16 05:21:34 51°14.151 2°55.396 334.7 9.3 332 12.8
2009-06-16 05:21:39 51°14.163 2°55.387 333.5 9.3 331 12.8
2009-06-16 05:21:45 51°14.176 2°55.373 331.9 9.4 328 12.8
2009-06-16 05:21:49 51°14.184 2°55.364 328.7 9.4 326 12.8
2009-06-16 05:21:54 51°14.195 2°55.352 326.7 9.5 325 12.8
2009-06-16 05:21:59 51°14.205 2°55.339 325.5 9.6 323 12.9
2009-06-16 05:22:05 51°14.218 2°55.323 323.4 9.7 321 12.9
2009-06-16 05:22:09 51°14.226 2°55.312 321.6 9.7 318 13
2009-06-16 05:22:14 51°14.236 2°55.297 319 9.8 316 12.7
2009-06-16 05:22:19 51°14.245 2°55.281 317.1 9.9 314 12.8
2009-06-16 05:22:24 51°14.255 2°55.265 315.2 10 313 12.8
2009-06-16 05:22:29 51°14.265 2°55.249 314.7 10.2 313 12.9
2009-06-16 05:22:34 51°14.274 2°55.232 313.9 10.2 311 12.8
2009-06-16 05:22:39 51°14.284 2°55.215 312.9 10.3 310 12.7
2009-06-16 05:22:44 51°14.293 2°55.197 311.4 10.4 309 12.7
2009-06-16 05:22:49 51°14.302 2°55.179 310.1 10.5 309 12.7
2009-06-16 05:22:54 51°14.311 2°55.161 309.6 10.6 308 12.7
2009-06-16 05:22:59 51°14.32 2°55.143 309.2 10.6 308 12.7
2009-06-16 05:23:04 51°14.329 2°55.124 308.9 10.8 309 12.9
2009-06-16 05:23:09 51°14.339 2°55.106 309.3 10.8 308 12.9
2009-06-16 05:23:14 51°14.348 2°55.087 309.3 10.9 308 13
2009-06-16 05:23:19 51°14.358 2°55.068 309.4 11 309 12.9
2009-06-16 05:23:24 51°14.367 2°55.049 309.5 11.1 308 12.8
2009-06-16 05:23:29 51°14.376 2°55.029 308.3 11.1 309 12.6
2009-06-16 05:23:34 51°14.387 2°55.011 307.9 11.2 312 12.5
2009-06-16 05:23:39 51°14.397 2°54.993 310.4 11.1 313 12.5
2009-06-16 05:23:44 51°14.408 2°54.975 310.6 11.1 312 12.6
2009-06-16 05:23:49 51°14.418 2°54.957 308.5 11.1 311 12.6
2009-06-16 05:23:54 51°14.428 2°54.938 307 11.2 312 12.7
2009-06-16 05:23:59 51°14.439 2°54.92 307 11 312 12.8
2009-06-16 05:24:04 51°14.449 2°54.902 306.8 11 312 12.8
2009-06-16 05:24:09 51°14.458 2°54.884 305.8 10.9 309 12.8
2009-06-16 05:24:14 51°14.467 2°54.865 303.2 10.9 307 12.8
2009-06-16 05:24:19 51°14.476 2°54.845 301.7 10.7 305 12.8
2009-06-16 05:24:25 51°14.486 2°54.822 299.9 10.7 304 12.8
2009-06-16 05:24:29 51°14.493 2°54.806 298.5 10.7 303 12.8
2009-06-16 05:24:34 51°14.501 2°54.786 297.7 10.7 302 12.8
2009-06-16 05:24:39 51°14.508 2°54.766 296.5 10.6 301 12.7
2009-06-16 05:24:44 51°14.516 2°54.746 296.2 10.7 302 12.9
2009-06-16 05:24:49 51°14.524 2°54.726 297.2 10.6 303 12.8
2009-06-16 05:24:54 51°14.532 2°54.706 298.1 10.6 302 12.8
2009-06-16 05:24:59 51°14.539 2°54.686 296.7 10.6 299 12.7
2009-06-16 05:25:04 51°14.546 2°54.665 294.1 10.6 298 12.7
2009-06-16 05:25:09 51°14.553 2°54.645 294 10.7 300 12.7
2009-06-16 05:25:14 51°14.56 2°54.624 294.4 10.6 298 12.7
2009-06-16 05:25:19 51°14.568 2°54.603 294 10.6 299 12.6
2009-06-16 05:25:25 51°14.576 2°54.579 293.5 10.6 298 12.6
2009-06-16 05:25:29 51°14.582 2°54.562 293.5 10.6 299 12.5
2009-06-16 05:25:34 51°14.589 2°54.541 293.9 10.7 299 12.7
2009-06-16 05:25:39 51°14.596 2°54.521 294.1 10.7 301 12.7
2009-06-16 05:25:45 51°14.606 2°54.497 295.3 10.8 302 12.7
2009-06-16 05:25:49 51°14.613 2°54.481 297 10.7 305 12.6
2009-06-16 05:25:54 51°14.622 2°54.462 299.4 10.8 306 12.7
2009-06-16 05:25:59 51°14.631 2°54.443 301.8 10.8 309 12.8
2009-06-16 05:26:05 51°14.643 2°54.422 304.3 10.8 313 12.8
2009-06-16 05:26:09 51°14.652 2°54.409 308.1 10.9 318 12.7
2009-06-16 05:26:14 51°14.664 2°54.393 312.7 10.9 322 12.7
2009-06-16 05:26:19 51°14.677 2°54.38 317.3 11 326 12.7
2009-06-16 05:26:25 51°14.693 2°54.366 322 11.1 331 12.7
2009-06-16 05:26:29 51°14.704 2°54.357 325.2 11.2 333 12.8
2009-06-16 05:26:34 51°14.718 2°54.346 328.1 11.3 336 12.7
2009-06-16 05:26:39 51°14.733 2°54.336 329.7 11.4 337 12.7
2009-06-16 05:26:45 51°14.75 2°54.324 330.3 11.4 337 12.5
2009-06-16 05:26:49 51°14.762 2°54.317 331.5 11.5 340 12.8
2009-06-16 05:26:54 51°14.777 2°54.309 333.6 11.5 341 12.8
2009-06-16 05:26:59 51°14.793 2°54.301 335.4 11.6 342 12.3
2009-06-16 05:27:05 51°14.811 2°54.29 335.8 11.5 339 12.2
2009-06-16 05:27:10 51°14.825 2°54.281 334.8 11.1 336 12.3
2009-06-16 05:27:15 51°14.837 2°54.267 329.1 10.6 327 12.3
2009-06-16 05:27:19 51°14.845 2°54.255 321 10.3 320 12.1
2009-06-16 05:27:25 51°14.856 2°54.236 312.9 10.1 312 11.9
2009-06-16 05:27:30 51°14.864 2°54.218 305.4 9.9 306 11.7
2009-06-16 05:27:35 51°14.871 2°54.198 299.1 9.9 300 11.7
2009-06-16 05:27:39 51°14.876 2°54.182 294.6 10 297 11.9
2009-06-16 05:27:45 51°14.883 2°54.158 292.7 10.2 296 11.7
2009-06-16 05:27:50 51°14.89 2°54.137 292 10.4 295 11.8
2009-06-16 05:27:55 51°14.896 2°54.116 292.3 10.5 297 11.7
2009-06-16 05:27:59 51°14.902 2°54.1 293.7 10.5 298 11.5
2009-06-16 05:28:05 51°14.91 2°54.075 295.1 10.6 299 11.7
2009-06-16 05:28:10 51°14.918 2°54.055 295.3 10.7 299 11.7
2009-06-16 05:28:15 51°14.925 2°54.034 295.3 10.7 301 11.8
2009-06-16 05:28:19 51°14.932 2°54.018 297.4 10.8 303 11.7
2009-06-16 05:28:25 51°14.943 2°53.995 300.3 10.8 306 11.7
2009-06-16 05:28:30 51°14.951 2°53.976 300.9 10.8 305 12.1
2009-06-16 05:28:35 51°14.96 2°53.957 301 10.8 308 12.1
2009-06-16 05:28:40 51°14.97 2°53.939 303.5 10.9 311 12
2009-06-16 05:28:45 51°14.981 2°53.922 306.9 10.9 314 12.1
2009-06-16 05:28:50 51°14.993 2°53.906 310.6 10.9 319 11.9
2009-06-16 05:28:55 51°15.005 2°53.891 314.1 11 322 11.9
2009-06-16 05:28:59 51°15.015 2°53.88 317.8 11 325 12
2009-06-16 05:29:05 51°15.031 2°53.864 321.6 11.1 330 12.2
2009-06-16 05:29:10 51°15.045 2°53.854 325.5 11.1 335 12.3
2009-06-16 05:29:15 51°15.059 2°53.844 329.8 11.2 337 12.5
2009-06-16 05:29:19 51°15.071 2°53.838 333.9 11.3 339 12.6
2009-06-16 05:29:24 51°15.085 2°53.828 334.7 11.3 337 12.3
2009-06-16 05:29:30 51°15.103 2°53.817 333.6 11.3 339 12.3
2009-06-16 05:29:35 51°15.117 2°53.808 333.7 11.4 339 11.9
2009-06-16 05:29:39 51°15.129 2°53.801 334 11.3 339 11.9
2009-06-16 05:29:44 51°15.144 2°53.792 334 11.3 338 12.1
2009-06-16 05:29:50 51°15.162 2°53.781 333.6 11.4 339 12.1
2009-06-16 05:29:55 51°15.177 2°53.772 334.1 11.4 339 12.2
2009-06-16 05:29:59 51°15.188 2°53.764 334.1 11.4 338 12.2
2009-06-16 05:30:05 51°15.206 2°53.753 334.1 11.4 339 12.2
2009-06-16 05:30:09 51°15.218 2°53.746 334.5 11.4 339 12.2
2009-06-16 05:30:15 51°15.236 2°53.735 334.6 11.4 339 12
2009-06-16 05:30:19 51°15.248 2°53.728 334.6 11.5 339 12.3
2009-06-16 05:30:25 51°15.265 2°53.717 334.5 11.4 338 12.1
2009-06-16 05:30:30 51°15.28 2°53.708 334.4 11.4 339 12.4
2009-06-16 05:30:34 51°15.292 2°53.701 334.2 11.4 338 12.4
2009-06-16 05:30:39 51°15.307 2°53.691 333.6 11.4 339 12.3
2009-06-16 05:30:45 51°15.324 2°53.68 333.5 11.4 337 12.2
2009-06-16 05:30:50 51°15.339 2°53.67 333.2 11.5 338 12.3
2009-06-16 05:30:55 51°15.354 2°53.661 333 11.5 337 12.4
2009-06-16 05:31:00 51°15.369 2°53.652 333.2 11.4 339 12.3
2009-06-16 05:31:05 51°15.383 2°53.643 333.9 11.4 339 12.5
2009-06-16 05:31:10 51°15.398 2°53.634 334.2 11.5 340 12.5
2009-06-16 05:31:15 51°15.413 2°53.625 334.6 11.5 339 12.8
2009-06-16 05:31:19 51°15.425 2°53.618 334.8 11.5 340 12.9
2009-06-16 05:31:25 51°15.443 2°53.606 334.6 11.4 338 12.9
2009-06-16 05:31:30 51°15.458 2°53.597 334 11.4 339 12.9
2009-06-16 05:31:35 51°15.473 2°53.588 334 11.5 340 13.1
2009-06-16 05:31:39 51°15.485 2°53.582 334.7 11.5 340 12.5
2009-06-16 05:31:44 51°15.5 2°53.573 334.7 11.5 339 12.9
2009-06-16 05:31:50 51°15.517 2°53.562 334.3 11.5 339 13.1
2009-06-16 05:31:55 51°15.532 2°53.553 334.5 11.4 339 12.9
2009-06-16 05:31:59 51°15.544 2°53.546 334.7 11.5 340 13.3
2009-06-16 05:32:05 51°15.562 2°53.536 334.9 11.5 340 13.1
2009-06-16 05:32:10 51°15.577 2°53.527 334.7 11.5 340 13.3
2009-06-16 05:32:15 51°15.592 2°53.518 334.7 11.5 340 13.1
2009-06-16 05:32:19 51°15.604 2°53.511 334.5 11.5 340 12.9
2009-06-16 05:32:25 51°15.622 2°53.501 334.4 11.5 340 13.4
2009-06-16 05:32:30 51°15.637 2°53.492 334.7 11.5 341 13.3
2009-06-16 05:32:35 51°15.652 2°53.483 334.7 11.5 340 13.5
2009-06-16 05:32:39 51°15.664 2°53.477 335.6 11.5 342 13
2009-06-16 05:32:45 51°15.682 2°53.468 337.2 11.5 343 13.4
2009-06-16 05:32:50 51°15.698 2°53.461 337.7 11.5 343 13.3
2009-06-16 05:32:54 51°15.71 2°53.455 338.8 11.6 345 13.6
2009-06-16 05:33:00 51°15.729 2°53.447 339 11.6 344 13.6
2009-06-16 05:33:05 51°15.744 2°53.44 339.4 11.6 344 13.5
2009-06-16 05:33:10 51°15.76 2°53.433 338.9 11.6 344 13.9
2009-06-16 05:33:15 51°15.775 2°53.427 339.1 11.6 346 14
2009-06-16 05:33:20 51°15.791 2°53.42 340.2 11.6 344 14.1
2009-06-16 05:33:25 51°15.807 2°53.414 340.1 11.7 346 14.2
2009-06-16 05:33:30 51°15.822 2°53.408 340.9 11.7 346 14.2
2009-06-16 05:33:35 51°15.838 2°53.401 340.3 11.6 345 14.1
2009-06-16 05:33:39 51°15.85 2°53.396 340.1 11.6 345 14.4
2009-06-16 05:33:45 51°15.869 2°53.388 340.5 11.6 346 14.5
2009-06-16 05:33:50 51°15.885 2°53.381 340.4 11.7 345 14.2
2009-06-16 05:33:55 51°15.9 2°53.375 340.4 11.6 345 14.5
2009-06-16 05:33:59 51°15.913 2°53.37 341 11.7 347 14.4
2009-06-16 05:34:04 51°15.929 2°53.364 341.2 11.6 345 14.4
2009-06-16 05:34:10 51°15.947 2°53.356 341.1 11.6 346 14.2
2009-06-16 05:34:15 51°15.963 2°53.349 341 11.6 345 14.4
2009-06-16 05:34:19 51°15.976 2°53.344 341 11.7 346 14
2009-06-16 05:34:25 51°15.994 2°53.337 341.2 11.7 346 13.9
2009-06-16 05:34:30 51°16.01 2°53.331 341.2 11.7 346 14
2009-06-16 05:34:35 51°16.026 2°53.324 340.9 11.7 345 13.9
2009-06-16 05:34:39 51°16.038 2°53.319 339.9 11.6 345 14
2009-06-16 05:34:45 51°16.057 2°53.311 340 11.7 345 14
2009-06-16 05:34:50 51°16.073 2°53.305 340.3 11.7 346 14.2
2009-06-16 05:34:55 51°16.089 2°53.299 340.7 11.7 346 14.1
2009-06-16 05:34:59 51°16.101 2°53.294 341 11.7 346 14
2009-06-16 05:35:05 51°16.12 2°53.286 340.6 11.6 346 14.1
2009-06-16 05:35:10 51°16.136 2°53.281 340.7 11.7 347 14.1
2009-06-16 05:35:15 51°16.151 2°53.274 341.2 11.7 346 14.2
2009-06-16 05:35:19 51°16.164 2°53.269 340.9 11.7 347 14.4
2009-06-16 05:35:25 51°16.182 2°53.262 341 11.7 345 14.4
2009-06-16 05:35:30 51°16.198 2°53.256 340.7 11.7 347 14.5
2009-06-16 05:35:35 51°16.214 2°53.25 341 11.6 347 14.2
2009-06-16 05:35:39 51°16.226 2°53.244 341.5 11.7 346 14.3
2009-06-16 05:35:45 51°16.245 2°53.237 340.8 11.7 346 14.4
2009-06-16 05:35:50 51°16.261 2°53.231 340.5 11.7 346 14.4
2009-06-16 05:35:55 51°16.277 2°53.224 340.5 11.7 345 14.4
2009-06-16 05:35:59 51°16.289 2°53.219 340.5 11.7 346 14.2
2009-06-16 05:36:05 51°16.308 2°53.212 341 11.7 345 14.4
2009-06-16 05:36:10 51°16.324 2°53.205 340.9 11.7 346 14.1
2009-06-16 05:36:15 51°16.34 2°53.199 341.1 11.7 347 14.1
2009-06-16 05:36:19 51°16.352 2°53.195 341.2 11.7 347 14.2
2009-06-16 05:36:25 51°16.371 2°53.188 341.2 11.7 347 14.3
2009-06-16 05:36:30 51°16.387 2°53.181 340.6 11.7 346 14.2
2009-06-16 05:36:35 51°16.403 2°53.175 340.3 11.7 346 14.3
2009-06-16 05:36:39 51°16.416 2°53.171 341.7 11.7 348 14.2
2009-06-16 05:36:45 51°16.435 2°53.165 342.7 11.7 347 14.1
2009-06-16 05:36:50 51°16.451 2°53.16 343 11.8 349 14.2
2009-06-16 05:36:55 51°16.467 2°53.155 344 11.7 349 14.2
2009-06-16 05:36:59 51°16.479 2°53.151 344.3 11.7 349 14.4
2009-06-16 05:37:05 51°16.499 2°53.146 344.6 11.8 350 14.1
2009-06-16 05:37:10 51°16.515 2°53.141 344.4 11.7 349 14.1
2009-06-16 05:37:15 51°16.531 2°53.136 344 11.7 349 14.1
2009-06-16 05:37:19 51°16.544 2°53.133 344.6 11.9 352 14.1
2009-06-16 05:37:25 51°16.563 2°53.127 345.4 11.8 351 14
2009-06-16 05:37:30 51°16.579 2°53.123 345.5 11.8 350 14.1
2009-06-16 05:37:35 51°16.595 2°53.118 345.6 11.8 350 14.1
2009-06-16 05:37:39 51°16.608 2°53.115 345.9 11.8 350 13.7
2009-06-16 05:37:45 51°16.627 2°53.11 345.4 11.9 351 13.8
2009-06-16 05:37:50 51°16.643 2°53.105 345.2 11.8 348 13.8
2009-06-16 05:37:55 51°16.66 2°53.101 345.9 11.8 351 13.6
2009-06-16 05:37:59 51°16.672 2°53.097 345.2 11.7 350 13.8
2009-06-16 05:38:05 51°16.692 2°53.093 346.3 11.8 351 13.7
2009-06-16 05:38:10 51°16.708 2°53.088 346.5 11.7 351 13.6
2009-06-16 05:38:15 51°16.724 2°53.085 346.6 11.8 352 13.6
2009-06-16 05:38:19 51°16.737 2°53.081 346.7 11.7 350 13.3
2009-06-16 05:38:25 51°16.756 2°53.077 346 11.7 352 13.3
2009-06-16 05:38:30 51°16.772 2°53.073 346.1 11.7 350 13.3
2009-06-16 05:38:35 51°16.788 2°53.067 345.7 11.7 349 13.1
2009-06-16 05:38:39 51°16.801 2°53.064 345.7 11.7 351 12.9
2009-06-16 05:38:44 51°16.817 2°53.059 345.6 11.7 350 12.4
2009-06-16 05:38:50 51°16.836 2°53.054 346.1 11.6 350 11.7
2009-06-16 05:38:55 51°16.852 2°53.05 345.9 11.6 350 11.5
2009-06-16 05:38:59 51°16.865 2°53.046 345.8 11.6 350 11
2009-06-16 05:39:04 51°16.88 2°53.042 346.2 11.6 349 11.2
2009-06-16 05:39:10 51°16.899 2°53.036 345.7 11.6 350 11
2009-06-16 05:39:15 51°16.915 2°53.031 346.2 11.6 349 10.8
2009-06-16 05:39:19 51°16.928 2°53.027 346 11.6 349 11
2009-06-16 05:39:25 51°16.947 2°53.022 346.1 11.6 349 10.9
2009-06-16 05:39:30 51°16.963 2°53.018 345.9 11.7 351 11.1
2009-06-16 05:39:35 51°16.979 2°53.013 346.4 11.6 349 10.8
2009-06-16 05:39:39 51°16.992 2°53.009 345.6 11.6 348 11.1
2009-06-16 05:39:45 51°17.011 2°53.003 345.4 11.7 350 11.1
2009-06-16 05:39:49 51°17.023 2°52.999 345.9 11.7 349 11.3
2009-06-16 05:39:55 51°17.043 2°52.994 345.7 11.7 349 11.1
2009-06-16 05:39:59 51°17.055 2°52.99 345.6 11.7 350 11.1
2009-06-16 05:40:05 51°17.074 2°52.985 346.3 11.8 350 11.4
2009-06-16 05:40:10 51°17.09 2°52.98 346.2 11.7 349 11.5
2009-06-16 05:40:15 51°17.106 2°52.975 345.4 11.7 349 11.6
2009-06-16 05:40:19 51°17.119 2°52.971 345.4 11.7 349 11.6
2009-06-16 05:40:25 51°17.138 2°52.965 345.5 11.7 349 11.8
2009-06-16 05:40:30 51°17.154 2°52.96 345.6 11.7 350 12
2009-06-16 05:40:35 51°17.17 2°52.955 345.8 11.7 349 12.1
2009-06-16 05:40:39 51°17.183 2°52.952 345.8 11.8 351 12.1
2009-06-16 05:40:44 51°17.199 2°52.948 346.5 11.7 352 11.6
2009-06-16 05:40:50 51°17.219 2°52.945 349.4 11.8 355 11.9
2009-06-16 05:40:55 51°17.235 2°52.944 351.5 11.8 356 11.7
2009-06-16 05:40:59 51°17.248 2°52.944 354.8 11.8 2 11.8
2009-06-16 05:41:04 51°17.265 2°52.946 357.9 11.9 3 12
2009-06-16 05:41:10 51°17.285 2°52.949 0.7 11.9 7 12
2009-06-16 05:41:15 51°17.301 2°52.954 3.9 11.9 10 12.2
2009-06-16 05:41:19 51°17.314 2°52.957 6.2 12 11 12.1
2009-06-16 05:41:25 51°17.333 2°52.966 9.4 12 16 12
2009-06-16 05:41:29 51°17.346 2°52.971 11.7 12.1 17 11.8
2009-06-16 05:41:35 51°17.365 2°52.983 16.1 12.1 20 11.9
2009-06-16 05:41:39 51°17.378 2°52.991 17.9 12.2 21 12
2009-06-16 05:41:45 51°17.396 2°53.005 20.9 12.2 25 12
2009-06-16 05:41:50 51°17.412 2°53.014 21.5 12.2 23 12.1
2009-06-16 05:41:55 51°17.427 2°53.028 23.8 12.3 29 11.9
2009-06-16 05:41:59 51°17.439 2°53.038 27.4 12.3 29 12.3
2009-06-16 05:42:05 51°17.457 2°53.053 26 12.4 30 12.4
2009-06-16 05:42:10 51°17.471 2°53.068 29.1 12.4 33 12.3
2009-06-16 05:42:15 51°17.486 2°53.082 30.2 12.4 32 12.3
2009-06-16 05:42:19 51°17.497 2°53.095 32.5 12.4 35 12.3
2009-06-16 05:42:25 51°17.514 2°53.114 34.1 12.5 35 12.4
2009-06-16 05:42:30 51°17.529 2°53.13 34.5 12.5 36 12.1
2009-06-16 05:42:35 51°17.542 2°53.147 35.5 12.5 37 12.3
2009-06-16 05:42:39 51°17.554 2°53.159 35.7 12.5 35 12.4
2009-06-16 05:42:45 51°17.57 2°53.181 36.9 12.6 39 12.3
2009-06-16 05:42:50 51°17.584 2°53.197 37.5 12.6 38 12.1
2009-06-16 05:42:55 51°17.597 2°53.215 38.2 12.6 38 12.4
2009-06-16 05:42:59 51°17.609 2°53.227 37.1 12.5 39 12.3
2009-06-16 05:43:04 51°17.622 2°53.246 39.6 12.5 38 12.1
2009-06-16 05:43:10 51°17.638 2°53.266 38.1 12.6 40 12.2
2009-06-16 05:43:15 51°17.652 2°53.283 38.3 12.6 38 12.3
2009-06-16 05:43:19 51°17.663 2°53.298 38.8 12.6 39 12.4
2009-06-16 05:43:25 51°17.679 2°53.318 38.6 12.6 37 12.2
2009-06-16 05:43:30 51°17.693 2°53.336 38 12.5 39 12.2
2009-06-16 05:43:35 51°17.706 2°53.352 38.7 12.4 38 12.2
2009-06-16 05:43:39 51°17.718 2°53.366 38.6 12.5 37 12
2009-06-16 05:43:45 51°17.734 2°53.386 37.4 12.5 38 12.3
2009-06-16 05:43:50 51°17.748 2°53.403 37.9 12.6 38 12.1
2009-06-16 05:43:55 51°17.762 2°53.42 37.3 12.6 37 12.2
2009-06-16 05:43:59 51°17.773 2°53.433 36.7 12.5 37 12.2
2009-06-16 05:44:05 51°17.789 2°53.453 36.8 12.5 37 12.2
2009-06-16 05:44:10 51°17.803 2°53.469 36.5 12.5 36 12.2
2009-06-16 05:44:15 51°17.817 2°53.487 37.7 12.4 38 12.1
2009-06-16 05:44:20 51°17.831 2°53.503 37 12.5 36 12.3
2009-06-16 05:44:25 51°17.845 2°53.519 36.4 12.5 36 12.6
2009-06-16 05:44:30 51°17.859 2°53.535 36.3 12.5 36 12.5
2009-06-16 05:44:35 51°17.873 2°53.552 36.2 12.6 36 12.4
2009-06-16 05:44:40 51°17.887 2°53.567 35.7 12.5 35 12.2
2009-06-16 05:44:45 51°17.901 2°53.583 35.2 12.5 35 12.2
2009-06-16 05:44:50 51°17.916 2°53.6 35.3 12.5 35 12.3
2009-06-16 05:44:55 51°17.93 2°53.616 35.2 12.6 37 12.3
2009-06-16 05:44:59 51°17.941 2°53.629 35.7 12.5 35 12.1
2009-06-16 05:45:05 51°17.958 2°53.649 35.9 12.6 37 12.4
2009-06-16 05:45:10 51°17.972 2°53.664 35.2 12.6 35 12.4
2009-06-16 05:45:15 51°17.986 2°53.68 34.9 12.5 35 12.4
2009-06-16 05:45:19 51°17.998 2°53.693 34.2 12.5 36 12.4
2009-06-16 05:45:24 51°18.012 2°53.709 35.3 12.5 34 12.4
2009-06-16 05:45:30 51°18.029 2°53.727 34.3 12.5 35 12.5
2009-06-16 05:45:35 51°18.044 2°53.743 34.2 12.5 35 12.6
2009-06-16 05:45:39 51°18.055 2°53.756 35.3 12.5 36 12.5
2009-06-16 05:45:45 51°18.072 2°53.774 34.2 12.5 34 12.4
2009-06-16 05:45:50 51°18.086 2°53.79 34.2 12.5 35 12.7
2009-06-16 05:45:55 51°18.101 2°53.806 34.4 12.5 35 12.7
2009-06-16 05:45:59 51°18.112 2°53.819 34.3 12.5 35 12.8
2009-06-16 05:46:05 51°18.129 2°53.838 34.3 12.6 34 12.7
2009-06-16 05:46:10 51°18.144 2°53.853 33.3 12.5 33 12.7
2009-06-16 05:46:15 51°18.158 2°53.868 32.9 12.4 34 12.7
2009-06-16 05:46:19 51°18.169 2°53.881 33.8 12.5 34 12.7
2009-06-16 05:46:25 51°18.186 2°53.899 33.4 12.5 34 12.7
2009-06-16 05:46:30 51°18.201 2°53.915 33.5 12.6 35 12.9
2009-06-16 05:46:35 51°18.215 2°53.931 33.9 12.6 34 12.8
2009-06-16 05:46:40 51°18.23 2°53.947 35 12.6 35 12.6
2009-06-16 05:46:45 51°18.244 2°53.962 33.9 12.6 33 12.5
2009-06-16 05:46:50 51°18.258 2°53.978 33.3 12.5 34 12.5
2009-06-16 05:46:55 51°18.272 2°53.994 34.1 12.6 35 12.4
2009-06-16 05:46:59 51°18.284 2°54.006 34.5 12.6 33 12.7
2009-06-16 05:47:05 51°18.301 2°54.025 34 12.5 35 12.6
2009-06-16 05:47:10 51°18.316 2°54.04 33.9 12.5 33 12.7
2009-06-16 05:47:15 51°18.33 2°54.056 33.8 12.6 34 12.7
2009-06-16 05:47:19 51°18.341 2°54.07 34.4 12.6 36 12.8
2009-06-16 05:47:24 51°18.356 2°54.084 33.7 12.5 33 12.8
2009-06-16 05:47:30 51°18.373 2°54.104 34.6 12.5 34 12.9
2009-06-16 05:47:35 51°18.387 2°54.119 33.7 12.5 35 12.9
2009-06-16 05:47:39 51°18.399 2°54.131 33.8 12.5 34 13
2009-06-16 05:47:45 51°18.416 2°54.151 34.9 12.5 35 12.9
2009-06-16 05:47:50 51°18.43 2°54.166 34.3 12.5 34 12.9
2009-06-16 05:47:55 51°18.444 2°54.183 34 12.6 36 13.2
2009-06-16 05:47:59 51°18.456 2°54.194 33.7 12.5 33 13.1
2009-06-16 05:48:05 51°18.473 2°54.214 34.2 12.5 36 13.1
2009-06-16 05:48:10 51°18.488 2°54.229 34.3 12.5 33 13
2009-06-16 05:48:15 51°18.502 2°54.244 33.3 12.5 34 13.1
2009-06-16 05:48:19 51°18.514 2°54.257 34 12.5 32 13
2009-06-16 05:48:25 51°18.531 2°54.275 33 12.6 34 13
2009-06-16 05:48:30 51°18.546 2°54.291 34 12.6 34 13.1
2009-06-16 05:48:35 51°18.56 2°54.307 34.3 12.6 35 13.2
2009-06-16 05:48:40 51°18.575 2°54.322 33.9 12.6 34 13.1
2009-06-16 05:48:45 51°18.589 2°54.338 33.7 12.5 34 13.1
2009-06-16 05:48:50 51°18.603 2°54.354 35 12.7 36 13.2
2009-06-16 05:48:55 51°18.618 2°54.369 34.4 12.6 32 13.2
2009-06-16 05:48:59 51°18.629 2°54.382 33.5 12.6 37 13.1
2009-06-16 05:49:05 51°18.647 2°54.401 34.4 12.6 33 13.1
2009-06-16 05:49:10 51°18.661 2°54.417 34.4 12.7 35 13.1
2009-06-16 05:49:15 51°18.675 2°54.433 33.9 12.6 35 13.3
2009-06-16 05:49:19 51°18.687 2°54.446 34.3 12.5 34 13.3
2009-06-16 05:49:25 51°18.704 2°54.463 32.9 12.6 32 13.4
2009-06-16 05:49:30 51°18.718 2°54.48 34.5 12.6 38 13.4
2009-06-16 05:49:35 51°18.733 2°54.495 33 12.6 33 13.5
2009-06-16 05:49:39 51°18.744 2°54.508 34.2 12.5 35 13.5
2009-06-16 05:49:45 51°18.762 2°54.526 33.3 12.5 33 13.3
2009-06-16 05:49:50 51°18.776 2°54.542 33.4 12.6 35 13.3
2009-06-16 05:49:55 51°18.791 2°54.557 33.3 12.5 34 13.3
2009-06-16 05:49:59 51°18.802 2°54.569 33.4 12.5 35 13
2009-06-16 05:50:04 51°18.816 2°54.586 34.9 12.5 34 13.6
2009-06-16 05:50:10 51°18.834 2°54.604 33.5 12.5 33 13.6
2009-06-16 05:50:15 51°18.848 2°54.619 34.2 12.5 34 13.5
2009-06-16 05:50:19 51°18.86 2°54.631 33.1 12.5 32 13.6
2009-06-16 05:50:25 51°18.877 2°54.65 32.7 12.5 35 13.4
2009-06-16 05:50:30 51°18.891 2°54.665 33.6 12.6 34 13.5
2009-06-16 05:50:35 51°18.906 2°54.68 32.7 12.4 33 13.2
2009-06-16 05:50:39 51°18.917 2°54.693 33.6 12.5 35 13.5
2009-06-16 05:50:45 51°18.934 2°54.71 33.2 12.4 32 13.6
2009-06-16 05:50:50 51°18.948 2°54.727 33.5 12.5 36 13.6
2009-06-16 05:50:55 51°18.963 2°54.741 34.2 12.5 32 13.5
2009-06-16 05:51:00 51°18.978 2°54.757 32.5 12.5 34 13.5
2009-06-16 05:51:05 51°18.992 2°54.773 33.9 12.6 33 13.5
2009-06-16 05:51:10 51°19.007 2°54.789 33.6 12.6 34 13.8
2009-06-16 05:51:15 51°19.021 2°54.804 33.3 12.5 33 13.5
2009-06-16 05:51:20 51°19.035 2°54.82 33.9 12.6 35 13.8
2009-06-16 05:51:25 51°19.05 2°54.834 32.9 12.5 32 13.8
2009-06-16 05:51:30 51°19.065 2°54.85 32.4 12.6 35 13.9
2009-06-16 05:51:35 51°19.079 2°54.865 33.1 12.5 32 13.7
2009-06-16 05:51:39 51°19.091 2°54.877 32 12.5 34 13.5
2009-06-16 05:51:45 51°19.108 2°54.896 34.2 12.5 34 13.7
2009-06-16 05:51:50 51°19.122 2°54.911 33.9 12.4 33 13.7
2009-06-16 05:51:55 51°19.136 2°54.927 33.1 12.4 36 14
2009-06-16 05:51:59 51°19.148 2°54.939 33.9 12.4 32 13.9
2009-06-16 05:52:05 51°19.165 2°54.957 32.8 12.5 34 13.7
2009-06-16 05:52:10 51°19.18 2°54.973 33.7 12.6 34 14
2009-06-16 05:52:15 51°19.194 2°54.988 33 12.5 33 13.7
2009-06-16 05:52:19 51°19.206 2°55 33.5 12.5 34 14
2009-06-16 05:52:24 51°19.22 2°55.015 33 12.6 34 13.9
2009-06-16 05:52:30 51°19.237 2°55.035 33.1 12.7 35 14.2
2009-06-16 05:52:35 51°19.252 2°55.049 33.4 12.5 33 13.8
2009-06-16 05:52:39 51°19.263 2°55.062 33.5 12.5 35 13.7
2009-06-16 05:52:45 51°19.281 2°55.081 33.1 12.5 34 14
2009-06-16 05:52:50 51°19.295 2°55.095 32.8 12.5 33 13.9
2009-06-16 05:52:55 51°19.31 2°55.111 33.5 12.6 34 14.2
2009-06-16 05:53:00 51°19.324 2°55.126 32.7 12.6 33 13.8
2009-06-16 05:53:05 51°19.339 2°55.143 33.2 12.7 34 14.1
2009-06-16 05:53:10 51°19.353 2°55.158 33.3 12.6 33 14.2
2009-06-16 05:53:15 51°19.368 2°55.173 33 12.6 34 14.1
2009-06-16 05:53:20 51°19.383 2°55.189 32.7 12.7 34 13.9
2009-06-16 05:53:25 51°19.398 2°55.204 32.9 12.6 32 13.9
2009-06-16 05:53:30 51°19.411 2°55.22 32.5 12.6 36 14.1
2009-06-16 05:53:35 51°19.426 2°55.235 33.4 12.6 31 13.9
2009-06-16 05:53:40 51°19.44 2°55.252 33.8 12.7 36 14.2
2009-06-16 05:53:45 51°19.455 2°55.267 33.3 12.7 34 14.4
2009-06-16 05:53:50 51°19.469 2°55.283 34.1 12.7 35 14.1
2009-06-16 05:53:55 51°19.484 2°55.298 34 12.7 33 14.2
2009-06-16 05:53:59 51°19.496 2°55.311 33.3 12.6 35 14.2
2009-06-16 05:54:05 51°19.513 2°55.329 34.2 12.5 32 14.3
2009-06-16 05:54:10 51°19.527 2°55.345 33.1 12.6 35 14.1
2009-06-16 05:54:15 51°19.542 2°55.361 33.6 12.5 34 14.2
2009-06-16 05:54:19 51°19.553 2°55.373 33.4 12.5 34 14.2
2009-06-16 05:54:25 51°19.57 2°55.392 33.1 12.5 35 14.1
2009-06-16 05:54:30 51°19.585 2°55.407 33.3 12.5 33 14.2
2009-06-16 05:54:35 51°19.599 2°55.423 34.1 12.6 36 14.3
2009-06-16 05:54:39 51°19.611 2°55.435 33.9 12.7 33 14.1
2009-06-16 05:54:45 51°19.628 2°55.454 33.2 12.6 34 14.1
2009-06-16 05:54:50 51°19.643 2°55.47 33.5 12.6 35 14.3
2009-06-16 05:54:55 51°19.657 2°55.486 33 12.7 34 14.5
2009-06-16 05:54:59 51°19.669 2°55.497 32.4 12.5 33 14.2
2009-06-16 05:55:05 51°19.686 2°55.517 33.7 12.7 36 14.1
2009-06-16 05:55:10 51°19.701 2°55.531 33.5 12.6 30 14.3
2009-06-16 05:55:15 51°19.715 2°55.548 33.2 12.6 37 14.2
2009-06-16 05:55:20 51°19.73 2°55.562 33 12.6 31 14.2
2009-06-16 05:55:25 51°19.745 2°55.578 33 12.6 33 14.4
2009-06-16 05:55:30 51°19.759 2°55.593 32.2 12.6 34 14.5
2009-06-16 05:55:35 51°19.774 2°55.609 32.7 12.7 34 14.7
2009-06-16 05:55:40 51°19.789 2°55.624 32.3 12.6 32 14.2
2009-06-16 05:55:45 51°19.803 2°55.64 33.7 12.6 34 14.4
2009-06-16 05:55:50 51°19.818 2°55.655 32.5 12.6 33 14.4
2009-06-16 05:55:55 51°19.832 2°55.672 34.2 12.6 36 14.5
2009-06-16 05:56:00 51°19.847 2°55.686 32.9 12.6 32 14.5
2009-06-16 05:56:05 51°19.861 2°55.702 33.8 12.6 35 14.8
2009-06-16 05:56:10 51°19.876 2°55.717 32.9 12.6 34 14.6
2009-06-16 05:56:15 51°19.89 2°55.733 33.5 12.6 35 14.7
2009-06-16 05:56:19 51°19.902 2°55.745 33.6 12.6 33 14.4
2009-06-16 05:56:25 51°19.919 2°55.764 33.5 12.6 34 14.4
2009-06-16 05:56:30 51°19.933 2°55.78 34 12.7 34 14.3
2009-06-16 05:56:35 51°19.948 2°55.795 33.3 12.6 33 14.4
2009-06-16 05:56:39 51°19.96 2°55.808 34 12.6 35 14.5
2009-06-16 05:56:45 51°19.977 2°55.826 33.5 12.6 31 14.6
2009-06-16 05:56:50 51°19.992 2°55.842 32.1 12.7 36 15
2009-06-16 05:56:55 51°20.006 2°55.857 33.4 12.5 31 14.7
2009-06-16 05:56:59 51°20.018 2°55.868 31.5 12.5 31 14.8
2009-06-16 05:57:04 51°20.032 2°55.884 32.7 12.6 33 14.8
2009-06-16 05:57:10 51°20.05 2°55.902 32.7 12.6 34 14.9
2009-06-16 05:57:15 51°20.065 2°55.917 32.1 12.6 32 14.6
2009-06-16 05:57:19 51°20.076 2°55.93 32.5 12.6 35 14.5
2009-06-16 05:57:25 51°20.094 2°55.948 32.9 12.6 32 14.7
2009-06-16 05:57:30 51°20.108 2°55.964 32.8 12.6 35 14.8
2009-06-16 05:57:35 51°20.123 2°55.978 32.6 12.6 32 14.9
2009-06-16 05:57:40 51°20.137 2°55.995 33.7 12.6 35 14.9
2009-06-16 05:57:45 51°20.152 2°56.01 34.2 12.7 35 14.9
2009-06-16 05:57:50 51°20.166 2°56.026 34.2 12.5 33 14.8
2009-06-16 05:57:55 51°20.181 2°56.041 33.3 12.6 35 14.6
2009-06-16 05:58:00 51°20.195 2°56.057 34.2 12.6 34 15
2009-06-16 05:58:05 51°20.21 2°56.072 33.2 12.6 35 14.9
2009-06-16 05:58:10 51°20.224 2°56.088 34 12.6 32 14.8
2009-06-16 05:58:15 51°20.239 2°56.104 33.5 12.7 35 14.9
2009-06-16 05:58:19 51°20.25 2°56.116 33.6 12.6 33 14.8
2009-06-16 05:58:25 51°20.268 2°56.135 33.6 12.7 35 14.9
2009-06-16 05:58:30 51°20.283 2°56.151 34.2 12.6 32 14.9
2009-06-16 05:58:35 51°20.297 2°56.167 33.7 12.7 36 15
2009-06-16 05:58:39 51°20.308 2°56.18 34.6 12.6 34 14.8
2009-06-16 05:58:45 51°20.326 2°56.197 33.4 12.5 33 14.8
2009-06-16 05:58:50 51°20.34 2°56.214 33.5 12.5 35 14.8
2009-06-16 05:58:55 51°20.355 2°56.229 33.8 12.6 33 14.7
2009-06-16 05:58:59 51°20.366 2°56.242 33.6 12.7 34 15
2009-06-16 05:59:05 51°20.384 2°56.26 32.8 12.6 33 15
2009-06-16 05:59:10 51°20.398 2°56.276 33.3 12.7 34 15.1
2009-06-16 05:59:15 51°20.413 2°56.291 33.3 12.6 33 15.3
2009-06-16 05:59:19 51°20.425 2°56.304 33.4 12.6 34 15.1
2009-06-16 05:59:25 51°20.442 2°56.323 34 12.7 34 15.1
2009-06-16 05:59:30 51°20.457 2°56.337 33.5 12.6 33 14.8
2009-06-16 05:59:35 51°20.471 2°56.353 33.1 12.6 34 14.9
2009-06-16 05:59:40 51°20.486 2°56.369 33.4 12.7 34 15
2009-06-16 05:59:45 51°20.501 2°56.384 33.5 12.7 33 15
2009-06-16 05:59:50 51°20.515 2°56.4 32.9 12.7 35 15.1
2009-06-16 05:59:55 51°20.53 2°56.415 33.5 12.7 33 15.3
2009-06-16 06:00:00 51°20.544 2°56.431 33.5 12.6 36 15.1
2009-06-16 06:00:05 51°20.559 2°56.446 34.2 12.6 32 15.1
2009-06-16 06:00:10 51°20.573 2°56.463 33.4 12.7 35 15
2009-06-16 06:00:15 51°20.588 2°56.478 33.6 12.6 33 15.1
2009-06-16 06:00:19 51°20.6 2°56.49 32.9 12.5 33 15
2009-06-16 06:00:25 51°20.617 2°56.509 33.9 12.6 35 15
2009-06-16 06:00:30 51°20.632 2°56.524 33.4 12.6 32 15
2009-06-16 06:00:35 51°20.646 2°56.541 33.2 12.7 36 15.1
2009-06-16 06:00:39 51°20.658 2°56.552 33 12.7 31 15.2
2009-06-16 06:00:45 51°20.675 2°56.572 33.5 12.8 37 15.4
2009-06-16 06:00:50 51°20.69 2°56.585 32.8 12.6 30 15.3
2009-06-16 06:00:55 51°20.704 2°56.603 32.7 12.7 37 15.5
2009-06-16 06:00:59 51°20.716 2°56.614 33.7 12.6 31 15.3
2009-06-16 06:01:05 51°20.733 2°56.633 32.8 12.6 34 15.1
2009-06-16 06:01:10 51°20.748 2°56.648 32.5 12.6 33 15
2009-06-16 06:01:15 51°20.763 2°56.663 33.2 12.7 34 15.1
2009-06-16 06:01:19 51°20.775 2°56.675 32.8 12.7 33 15.2
2009-06-16 06:01:24 51°20.789 2°56.691 33.5 12.6 34 15.2
2009-06-16 06:01:30 51°20.807 2°56.71 33.2 12.7 35 15.6
2009-06-16 06:01:35 51°20.821 2°56.726 33.5 12.7 34 15.5
2009-06-16 06:01:39 51°20.833 2°56.738 33.4 12.7 34 15.3
2009-06-16 06:01:45 51°20.85 2°56.758 34.1 12.7 36 15.7
2009-06-16 06:01:50 51°20.865 2°56.774 33.4 12.7 34 15.4
2009-06-16 06:01:55 51°20.879 2°56.79 33.7 12.7 35 15.3
2009-06-16 06:02:00 51°20.894 2°56.805 33.5 12.7 34 15.5
2009-06-16 06:02:05 51°20.908 2°56.822 33.7 12.7 35 15.5
2009-06-16 06:02:10 51°20.923 2°56.837 33.3 12.7 33 15.5
2009-06-16 06:02:15 51°20.937 2°56.852 32.3 12.7 35 15.2
2009-06-16 06:02:20 51°20.952 2°56.868 33.5 12.8 35 15.4
2009-06-16 06:02:25 51°20.967 2°56.884 32.5 12.7 34 15.4
2009-06-16 06:02:30 51°20.981 2°56.9 33.2 12.8 33 15.2
2009-06-16 06:02:35 51°20.996 2°56.915 33 12.7 33 15.5
2009-06-16 06:02:39 51°21.008 2°56.928 32.8 12.8 36 15.4
2009-06-16 06:02:45 51°21.026 2°56.947 33.5 12.7 33 15.3
2009-06-16 06:02:50 51°21.04 2°56.964 33.2 12.8 36 15.4
2009-06-16 06:02:55 51°21.055 2°56.979 33.6 12.8 34 15.2
2009-06-16 06:02:59 51°21.066 2°56.994 33.9 12.8 37 15.3
2009-06-16 06:03:05 51°21.084 2°57.012 33.3 12.9 33 15.4
2009-06-16 06:03:10 51°21.098 2°57.029 33.6 12.9 36 15.7
2009-06-16 06:03:15 51°21.113 2°57.045 32.8 12.9 36 15.5
2009-06-16 06:03:19 51°21.125 2°57.058 33.9 12.9 35 15.5
2009-06-16 06:03:25 51°21.143 2°57.076 32.2 12.8 35 15.5
2009-06-16 06:03:30 51°21.157 2°57.093 34.2 12.9 37 15.5
2009-06-16 06:03:35 51°21.172 2°57.107 32.3 12.8 33 15.6
2009-06-16 06:03:39 51°21.183 2°57.122 33.6 12.9 38 15.8
2009-06-16 06:03:44 51°21.199 2°57.135 32.3 12.7 31 15.6
2009-06-16 06:03:50 51°21.216 2°57.156 32.8 12.8 35 15.5
2009-06-16 06:03:55 51°21.231 2°57.171 32.8 12.9 32 15.5
2009-06-16 06:03:59 51°21.243 2°57.184 32.5 12.8 35 15.6
2009-06-16 06:04:05 51°21.261 2°57.203 33 12.8 34 15.7
2009-06-16 06:04:10 51°21.276 2°57.219 32.6 12.8 32 15.6
2009-06-16 06:04:15 51°21.29 2°57.235 32.2 12.8 34 15.7
2009-06-16 06:04:20 51°21.305 2°57.251 32.4 12.8 34 15.9
2009-06-16 06:04:25 51°21.32 2°57.266 32.9 12.8 33 15.9
2009-06-16 06:04:30 51°21.335 2°57.283 32.7 12.9 35 15.8
2009-06-16 06:04:35 51°21.349 2°57.298 33.3 12.9 34 15.6
2009-06-16 06:04:40 51°21.364 2°57.315 32.5 12.9 35 15.9
2009-06-16 06:04:45 51°21.379 2°57.33 32.5 12.9 32 16
2009-06-16 06:04:50 51°21.394 2°57.347 32.3 12.9 36 15.9
2009-06-16 06:04:55 51°21.409 2°57.363 32.8 12.9 34 15.9
2009-06-16 06:04:59 51°21.421 2°57.375 32.9 13 34 15.9
2009-06-16 06:05:05 51°21.438 2°57.396 33.5 13 35 16
2009-06-16 06:05:10 51°21.453 2°57.411 33.1 13 32 15.9
2009-06-16 06:05:15 51°21.468 2°57.428 32.9 13 35 15.8
2009-06-16 06:05:19 51°21.48 2°57.441 33.9 13.1 35 16.1
2009-06-16 06:05:25 51°21.498 2°57.46 32.5 12.9 34 16.1
2009-06-16 06:05:30 51°21.512 2°57.477 33.4 12.9 34 16.2
2009-06-16 06:05:35 51°21.527 2°57.492 32.8 12.8 34 16.4
2009-06-16 06:05:39 51°21.539 2°57.505 32.7 12.8 34 16
2009-06-16 06:05:45 51°21.556 2°57.524 33.3 12.9 33 16.1
2009-06-16 06:05:50 51°21.571 2°57.54 32.2 12.9 33 16.3
2009-06-16 06:05:55 51°21.586 2°57.556 32.8 12.9 35 16.1
2009-06-16 06:05:59 51°21.598 2°57.568 32.3 12.7 33 16.4
2009-06-16 06:06:05 51°21.615 2°57.588 33 12.8 36 16.5
2009-06-16 06:06:10 51°21.63 2°57.603 33.7 12.8 33 16.5
2009-06-16 06:06:15 51°21.645 2°57.62 33.7 12.9 36 16.4
2009-06-16 06:06:20 51°21.66 2°57.635 33.3 12.8 32 16.4
2009-06-16 06:06:25 51°21.674 2°57.652 33.6 12.9 36 16.2
2009-06-16 06:06:30 51°21.689 2°57.668 33.5 12.8 34 16.3
2009-06-16 06:06:35 51°21.703 2°57.685 32.8 12.8 35 16.6
2009-06-16 06:06:39 51°21.715 2°57.697 33.3 12.8 34 16.5
2009-06-16 06:06:45 51°21.732 2°57.718 33.8 13 37 16.5
2009-06-16 06:06:50 51°21.747 2°57.733 33.6 12.9 34 16.3
2009-06-16 06:06:55 51°21.762 2°57.75 33.8 12.9 36 16.5
2009-06-16 06:06:59 51°21.774 2°57.764 34.2 12.9 35 16.3
2009-06-16 06:07:05 51°21.791 2°57.783 33.9 12.8 33 16.5
2009-06-16 06:07:10 51°21.806 2°57.8 33.4 12.8 36 16.5
2009-06-16 06:07:15 51°21.82 2°57.815 34.3 12.8 33 16.7
2009-06-16 06:07:19 51°21.832 2°57.828 32.8 12.8 35 16.9
2009-06-16 06:07:25 51°21.85 2°57.847 32.6 12.7 33 16.8
2009-06-16 06:07:30 51°21.864 2°57.863 34 12.8 35 16.2
2009-06-16 06:07:35 51°21.879 2°57.879 32 12.8 34 16.6
2009-06-16 06:07:39 51°21.89 2°57.893 33.9 12.8 36 17
2009-06-16 06:07:45 51°21.908 2°57.911 32.5 12.8 34 17
2009-06-16 06:07:50 51°21.923 2°57.928 33.5 12.8 34 17
2009-06-16 06:07:55 51°21.938 2°57.942 32.5 12.7 33 16.9
2009-06-16 06:07:59 51°21.949 2°57.957 33.7 12.7 37 16.8
2009-06-16 06:08:05 51°21.967 2°57.975 32.8 12.8 35 16.8
2009-06-16 06:08:10 51°21.981 2°57.991 33.5 12.9 36 17.1
2009-06-16 06:08:15 51°21.996 2°58.008 34 12.9 35 17
2009-06-16 06:08:19 51°22.008 2°58.02 33 12.8 34 16.9
2009-06-16 06:08:25 51°22.025 2°58.04 33.5 12.9 36 17
2009-06-16 06:08:30 51°22.04 2°58.056 33.9 12.9 35 16.9
2009-06-16 06:08:35 51°22.055 2°58.073 33.8 12.9 34 17.1
2009-06-16 06:08:39 51°22.067 2°58.086 33.5 12.9 36 17.2
2009-06-16 06:08:45 51°22.084 2°58.105 33.8 12.8 34 16.9
2009-06-16 06:08:50 51°22.099 2°58.121 33.2 12.8 34 17.2
2009-06-16 06:08:55 51°22.113 2°58.138 33.1 12.9 37 17.5
2009-06-16 06:09:00 51°22.128 2°58.153 32.9 12.8 32 17.3
2009-06-16 06:09:05 51°22.143 2°58.17 33.2 12.9 36 17.8
2009-06-16 06:09:10 51°22.158 2°58.185 32.8 12.8 34 17.5
2009-06-16 06:09:15 51°22.172 2°58.201 32.5 12.8 34 17.8
2009-06-16 06:09:20 51°22.187 2°58.217 32.3 12.9 35 17.7
2009-06-16 06:09:25 51°22.202 2°58.233 32.9 12.9 32 17.8
2009-06-16 06:09:30 51°22.217 2°58.25 32.2 12.9 36 18
2009-06-16 06:09:35 51°22.232 2°58.264 32.3 12.8 32 17.5
2009-06-16 06:09:39 51°22.244 2°58.278 33.2 12.9 36 17.5
2009-06-16 06:09:45 51°22.261 2°58.297 33.5 12.9 34 18.3
2009-06-16 06:09:50 51°22.276 2°58.313 33 12.8 35 18
2009-06-16 06:09:55 51°22.29 2°58.33 34.4 12.9 34 18.1
2009-06-16 06:09:59 51°22.302 2°58.343 33.5 12.8 34 18
2009-06-16 06:10:05 51°22.319 2°58.363 33.5 12.9 36 17.9
2009-06-16 06:10:10 51°22.334 2°58.378 33.6 12.9 34 18
2009-06-16 06:10:15 51°22.349 2°58.396 33.4 12.9 36 18
2009-06-16 06:10:19 51°22.361 2°58.408 33.3 12.9 34 18
2009-06-16 06:10:25 51°22.378 2°58.428 34 12.9 35 18
2009-06-16 06:10:30 51°22.393 2°58.444 33.4 12.9 34 18.1
2009-06-16 06:10:35 51°22.407 2°58.461 33.3 13 36 18
2009-06-16 06:10:39 51°22.419 2°58.474 34.2 12.9 33 18
2009-06-16 06:10:45 51°22.437 2°58.493 32.7 13 37 18.2
2009-06-16 06:10:50 51°22.452 2°58.509 33.5 13 33 18.2
2009-06-16 06:10:55 51°22.467 2°58.525 33.4 13 34 18.2
2009-06-16 06:11:00 51°22.482 2°58.542 33.4 13 36 18.2
2009-06-16 06:11:05 51°22.497 2°58.557 33.1 13 33 18.6
2009-06-16 06:11:10 51°22.511 2°58.575 33.1 13 36 18.5
2009-06-16 06:11:15 51°22.526 2°58.59 33.8 13 34 18.5
2009-06-16 06:11:20 51°22.541 2°58.607 33.4 13.1 35 18.2
2009-06-16 06:11:25 51°22.556 2°58.623 34 12.9 34 18.1
2009-06-16 06:11:30 51°22.57 2°58.64 33.4 12.9 35 18.5
2009-06-16 06:11:35 51°22.585 2°58.657 33.5 12.9 35 18.7
2009-06-16 06:11:39 51°22.597 2°58.669 32.6 12.8 33 18.7
2009-06-16 06:11:45 51°22.614 2°58.689 33.4 12.9 35 18.9
2009-06-16 06:11:50 51°22.629 2°58.705 33.1 13 35 19
2009-06-16 06:11:55 51°22.644 2°58.721 33.4 12.9 33 18.7
2009-06-16 06:11:59 51°22.656 2°58.735 33.8 13 36 18.9
2009-06-16 06:12:05 51°22.674 2°58.753 32.9 12.9 33 19
2009-06-16 06:12:10 51°22.688 2°58.771 34.1 13 38 19.1
2009-06-16 06:12:15 51°22.703 2°58.786 33.7 12.9 33 19.1
2009-06-16 06:12:19 51°22.715 2°58.801 34.2 13.1 37 19.1
2009-06-16 06:12:25 51°22.733 2°58.819 33.1 13 33 19.2
2009-06-16 06:12:30 51°22.748 2°58.836 32.6 13 35 19.4
2009-06-16 06:12:35 51°22.763 2°58.853 33.7 13.1 34 19.3
2009-06-16 06:12:39 51°22.775 2°58.865 32.7 13 34 19.3
2009-06-16 06:12:45 51°22.792 2°58.886 33.5 13 35 19.2
2009-06-16 06:12:50 51°22.807 2°58.902 33.3 13.1 35 19
2009-06-16 06:12:55 51°22.822 2°58.919 33.4 13.1 34 19.2
2009-06-16 06:12:59 51°22.834 2°58.931 31.9 13 33 19.3
2009-06-16 06:13:05 51°22.852 2°58.952 33.4 13.1 36 19.6
2009-06-16 06:13:10 51°22.867 2°58.968 33.3 13 33 19.3
2009-06-16 06:13:15 51°22.881 2°58.985 33.8 13.1 38 19.5
2009-06-16 06:13:20 51°22.896 2°59.001 33.7 12.9 34 19.6
2009-06-16 06:13:25 51°22.911 2°59.019 33.2 13 38 19.5
2009-06-16 06:13:30 51°22.926 2°59.034 33.3 12.9 32 19.6
2009-06-16 06:13:35 51°22.94 2°59.051 33.3 13.1 37 19.6
2009-06-16 06:13:39 51°22.952 2°59.064 34.4 13 35 19.7
2009-06-16 06:13:45 51°22.97 2°59.084 33.5 13 35 19.8
2009-06-16 06:13:50 51°22.985 2°59.1 33.2 12.9 34 19.8
2009-06-16 06:13:55 51°23 2°59.115 33 12.8 33 19.2
2009-06-16 06:13:59 51°23.012 2°59.129 33.8 13 35 19.4
2009-06-16 06:14:05 51°23.03 2°59.148 33.8 12.9 34 20
2009-06-16 06:14:10 51°23.044 2°59.165 33.3 13 35 19.9
2009-06-16 06:14:15 51°23.059 2°59.181 33 12.9 33 20
2009-06-16 06:14:19 51°23.071 2°59.194 33 13 35 19.8
2009-06-16 06:14:25 51°23.089 2°59.214 33.4 13 34 19.8
2009-06-16 06:14:30 51°23.103 2°59.231 33.7 13.1 36 20
2009-06-16 06:14:35 51°23.118 2°59.247 33.4 13 34 19.9
2009-06-16 06:14:39 51°23.13 2°59.26 32.7 13 35 20.1
2009-06-16 06:14:45 51°23.147 2°59.281 34.6 13 36 20
2009-06-16 06:14:50 51°23.163 2°59.296 33.5 12.9 35 20
2009-06-16 06:14:55 51°23.177 2°59.313 33.5 12.9 36 20
2009-06-16 06:14:59 51°23.189 2°59.326 33.8 13 34 20.1
2009-06-16 06:15:05 51°23.207 2°59.345 33.6 12.9 33 19.7
2009-06-16 06:15:10 51°23.222 2°59.361 33.5 12.9 36 19.8
2009-06-16 06:15:15 51°23.236 2°59.377 33.2 12.9 33 19.8
2009-06-16 06:15:20 51°23.251 2°59.394 32.7 13 36 20.2
2009-06-16 06:15:24 51°23.262 2°59.408 33.6 13 35 20.2
2009-06-16 06:15:30 51°23.281 2°59.427 32.4 13 36 20
2009-06-16 06:15:35 51°23.295 2°59.444 33.4 13 36 20.1
2009-06-16 06:15:40 51°23.31 2°59.46 33.8 13 34 20
2009-06-16 06:15:45 51°23.325 2°59.477 33.1 13 36 20.1
2009-06-16 06:15:50 51°23.339 2°59.495 33.5 13.1 37 20.2
2009-06-16 06:15:55 51°23.355 2°59.509 32.5 12.9 32 20.5
2009-06-16 06:15:59 51°23.366 2°59.524 34.1 13.1 38 20.3
2009-06-16 06:16:05 51°23.384 2°59.542 33.2 12.9 30 20.3
2009-06-16 06:16:10 51°23.399 2°59.558 32 13 37 20.3
2009-06-16 06:16:15 51°23.414 2°59.573 33 12.8 30 20.4
2009-06-16 06:16:19 51°23.426 2°59.585 31.7 12.8 33 20.2
2009-06-16 06:16:25 51°23.444 2°59.605 32.9 12.9 33 20.5
2009-06-16 06:16:30 51°23.459 2°59.619 32.2 12.8 32 20.5
2009-06-16 06:16:35 51°23.473 2°59.636 33.2 12.8 36 20.4
2009-06-16 06:16:39 51°23.485 2°59.647 32 12.7 29 20
2009-06-16 06:16:45 51°23.503 2°59.666 32.7 12.6 35 20.2
2009-06-16 06:16:50 51°23.518 2°59.68 32 12.6 30 20.2
2009-06-16 06:16:55 51°23.532 2°59.696 32.6 12.7 35 20.2
2009-06-16 06:16:59 51°23.544 2°59.708 33.2 12.7 32 20.4
2009-06-16 06:17:05 51°23.562 2°59.727 33.3 12.7 35 20.4
2009-06-16 06:17:10 51°23.576 2°59.743 33.3 12.6 34 20.6
2009-06-16 06:17:15 51°23.591 2°59.758 33.6 12.6 33 20.3
2009-06-16 06:17:19 51°23.603 2°59.771 33.4 12.7 34 20.7
2009-06-16 06:17:25 51°23.621 2°59.789 33.5 12.7 32 20.8
2009-06-16 06:17:30 51°23.635 2°59.805 32.7 12.7 34 20.7
2009-06-16 06:17:35 51°23.65 2°59.821 33.8 12.8 35 20.6
2009-06-16 06:17:39 51°23.661 2°59.833 33.4 12.8 34 20.8
2009-06-16 06:17:45 51°23.679 2°59.853 33 12.8 36 20.5
2009-06-16 06:17:50 51°23.694 2°59.869 34.1 12.8 33 20.6
2009-06-16 06:17:55 51°23.708 2°59.885 33.1 12.8 35 20.3
2009-06-16 06:18:00 51°23.723 2°59.901 34.2 12.8 35 20.2
2009-06-16 06:18:05 51°23.738 2°59.918 33.1 12.9 36 20.5
2009-06-16 06:18:10 51°23.753 2°59.933 33.6 12.9 33 20.1
2009-06-16 06:18:15 51°23.767 2°59.95 33.3 12.9 35 20.3
2009-06-16 06:18:20 51°23.782 2°59.964 32.8 12.7 32 20.3
2009-06-16 06:18:25 51°23.796 2°59.981 33.6 12.7 37 20.4
2009-06-16 06:18:30 51°23.811 2°59.997 34.3 12.7 33 20.1
2009-06-16 06:18:35 51°23.826 3°0.012 33 12.7 32 20
2009-06-16 06:18:39 51°23.837 3°0.025 33 12.6 34 20
2009-06-16 06:18:45 51°23.855 3°0.043 33.6 12.7 32 19.9
2009-06-16 06:18:50 51°23.87 3°0.058 32.7 12.7 33 19.6
2009-06-16 06:18:55 51°23.884 3°0.075 33.6 12.7 36 19.9
2009-06-16 06:19:00 51°23.899 3°0.09 34.2 12.8 33 19.5
2009-06-16 06:19:05 51°23.913 3°0.105 33.3 12.6 33 19.1
2009-06-16 06:19:10 51°23.928 3°0.121 33.2 12.6 34 19.3
2009-06-16 06:19:15 51°23.942 3°0.137 32.9 12.6 34 19.2
2009-06-16 06:19:19 51°23.954 3°0.149 32.9 12.7 33 19.3
2009-06-16 06:19:25 51°23.972 3°0.167 33 12.7 32 19
2009-06-16 06:19:30 51°23.986 3°0.183 32.8 12.7 33 19.2
2009-06-16 06:19:35 51°24.001 3°0.198 32 12.6 33 19.1
2009-06-16 06:19:39 51°24.012 3°0.211 33.7 12.6 36 19
2009-06-16 06:19:45 51°24.03 3°0.229 33.3 12.8 32 19.3
2009-06-16 06:19:50 51°24.045 3°0.246 33.7 12.6 35 19.2
2009-06-16 06:19:55 51°24.06 3°0.261 33.9 12.7 33 18.8
2009-06-16 06:20:00 51°24.074 3°0.276 33.2 12.7 33 19
2009-06-16 06:20:05 51°24.089 3°0.291 33 12.6 33 18.5
2009-06-16 06:20:10 51°24.103 3°0.308 34.8 12.7 37 18.8
2009-06-16 06:20:15 51°24.118 3°0.323 33.1 12.7 33 18.5
2009-06-16 06:20:20 51°24.132 3°0.339 33 12.7 35 18.6
2009-06-16 06:20:25 51°24.147 3°0.354 34.1 12.7 33 18.8
2009-06-16 06:20:30 51°24.162 3°0.37 33.2 12.9 33 18.6
2009-06-16 06:20:35 51°24.177 3°0.386 34.2 12.7 32 18.8
2009-06-16 06:20:40 51°24.192 3°0.4 31.6 12.6 30 18.7
2009-06-16 06:20:45 51°24.206 3°0.416 33.6 12.7 33 18.4
2009-06-16 06:20:50 51°24.222 3°0.431 32 12.6 33 18.5
2009-06-16 06:20:55 51°24.236 3°0.447 32.8 12.7 34 18.5
2009-06-16 06:20:59 51°24.248 3°0.458 33.1 12.8 31 18.4
2009-06-16 06:21:05 51°24.266 3°0.477 32.5 12.6 32 18
2009-06-16 06:21:10 51°24.28 3°0.493 32.9 12.7 34 17.9
2009-06-16 06:21:15 51°24.295 3°0.508 33.8 12.8 33 18.3
2009-06-16 06:21:19 51°24.307 3°0.52 32.5 12.5 32 18.6
2009-06-16 06:21:25 51°24.324 3°0.54 34 12.6 36 18.3
2009-06-16 06:21:30 51°24.338 3°0.554 34.8 12.5 31 18.5
2009-06-16 06:21:35 51°24.353 3°0.568 31.3 12.3 32 18.3
2009-06-16 06:21:39 51°24.364 3°0.582 34.1 12.5 37 18.3
2009-06-16 06:21:45 51°24.382 3°0.599 32.8 12.5 31 18.1
2009-06-16 06:21:50 51°24.396 3°0.615 32.6 12.4 34 18.2
2009-06-16 06:21:55 51°24.411 3°0.63 33.1 12.5 33 18.5
2009-06-16 06:21:59 51°24.423 3°0.642 33.3 12.5 33 18
2009-06-16 06:22:05 51°24.44 3°0.659 32.5 12.5 32 18
2009-06-16 06:22:10 51°24.455 3°0.674 32.9 12.6 34 17.9
2009-06-16 06:22:15 51°24.47 3°0.689 32.7 12.6 32 17.9
2009-06-16 06:22:20 51°24.484 3°0.704 33.2 12.6 33 17.8
2009-06-16 06:22:25 51°24.499 3°0.72 32.3 12.6 35 18
2009-06-16 06:22:30 51°24.513 3°0.734 34.3 12.5 34 18.3
2009-06-16 06:22:35 51°24.528 3°0.75 32.3 12.5 32 18.3
2009-06-16 06:22:39 51°24.539 3°0.763 34 12.6 34 18.5
2009-06-16 06:22:45 51°24.557 3°0.78 33.5 12.5 33 18.7
2009-06-16 06:22:50 51°24.572 3°0.795 32.7 12.5 33 19.2
2009-06-16 06:22:55 51°24.586 3°0.812 34.1 12.6 36 20.1
2009-06-16 06:23:00 51°24.601 3°0.825 33 12.5 29 20.3
2009-06-16 06:23:05 51°24.615 3°0.842 33.9 12.6 36 20.3
2009-06-16 06:23:10 51°24.63 3°0.856 33.4 12.5 31 20.3
2009-06-16 06:23:15 51°24.644 3°0.872 32.8 12.5 35 20.6
2009-06-16 06:23:19 51°24.656 3°0.884 33.5 12.5 32 21
2009-06-16 06:23:25 51°24.673 3°0.903 33.2 12.5 35 20.9
2009-06-16 06:23:30 51°24.688 3°0.918 34.1 12.7 32 21.1
2009-06-16 06:23:35 51°24.703 3°0.933 33.3 12.6 33 20.9
2009-06-16 06:23:39 51°24.714 3°0.946 33.5 12.6 35 21.1
2009-06-16 06:23:45 51°24.731 3°0.965 34 12.6 35 20.9
2009-06-16 06:23:50 51°24.746 3°0.98 33.9 12.6 34 20.7
2009-06-16 06:23:55 51°24.76 3°0.996 35 12.5 33 20.8
2009-06-16 06:23:59 51°24.772 3°1.008 32.9 12.4 33 20.9
2009-06-16 06:24:05 51°24.789 3°1.027 34.7 12.4 34 20.9
2009-06-16 06:24:10 51°24.803 3°1.042 33.4 12.4 34 21
2009-06-16 06:24:15 51°24.818 3°1.057 33 12.4 33 20.7
2009-06-16 06:24:19 51°24.829 3°1.069 33.5 12.5 34 20.2
2009-06-16 06:24:25 51°24.846 3°1.088 33.5 12.4 33 19.8
2009-06-16 06:24:30 51°24.861 3°1.103 33 12.5 35 19.1
2009-06-16 06:24:35 51°24.876 3°1.118 33.2 12.4 32 19.1
2009-06-16 06:24:40 51°24.889 3°1.134 33.8 12.5 36 18.6
2009-06-16 06:24:45 51°24.904 3°1.149 34.3 12.4 30 18.8
2009-06-16 06:24:50 51°24.918 3°1.165 32.9 12.5 36 18.5
2009-06-16 06:24:55 51°24.933 3°1.18 34.2 12.5 32 18.3
2009-06-16 06:25:00 51°24.947 3°1.195 33.3 12.5 33 17.9
2009-06-16 06:25:05 51°24.961 3°1.211 32.5 12.6 35 17.8
2009-06-16 06:25:10 51°24.976 3°1.226 33.5 12.5 32 17.6
2009-06-16 06:25:15 51°24.991 3°1.241 32.5 12.4 32 17
2009-06-16 06:25:19 51°25.002 3°1.254 33.5 12.5 34 16.8
2009-06-16 06:25:25 51°25.02 3°1.271 33.2 12.4 32 16.6
2009-06-16 06:25:30 51°25.034 3°1.288 33.6 12.5 35 16.2
2009-06-16 06:25:35 51°25.049 3°1.302 33.8 12.5 32 16.3
2009-06-16 06:25:39 51°25.06 3°1.314 32.7 12.5 33 16.1
2009-06-16 06:25:45 51°25.077 3°1.334 33.2 12.5 35 16
2009-06-16 06:25:50 51°25.092 3°1.347 33 12.5 30 16.1
2009-06-16 06:25:55 51°25.106 3°1.364 33.2 12.4 37 15.8
2009-06-16 06:25:59 51°25.118 3°1.376 34 12.4 32 16
2009-06-16 06:26:05 51°25.135 3°1.394 32.2 12.4 35 16.1
2009-06-16 06:26:10 51°25.149 3°1.408 33.5 12.4 33 15.7
2009-06-16 06:26:15 51°25.164 3°1.424 32.5 12.5 34 15.7
2009-06-16 06:26:19 51°25.176 3°1.435 32.5 12.4 32 15.8
2009-06-16 06:26:24 51°25.19 3°1.451 32.6 12.5 35 15.4
2009-06-16 06:26:30 51°25.207 3°1.47 34.1 12.7 32 15.6
2009-06-16 06:26:35 51°25.222 3°1.484 32 12.4 31 15.6
2009-06-16 06:26:39 51°25.233 3°1.497 32.7 12.5 35 15.4
2009-06-16 06:26:45 51°25.251 3°1.514 34 12.5 31 15.1
2009-06-16 06:26:50 51°25.265 3°1.53 32.4 12.5 34 15.4
2009-06-16 06:26:55 51°25.28 3°1.545 32.8 12.4 32 15
2009-06-16 06:26:59 51°25.292 3°1.557 33.2 12.5 33 14.8
2009-06-16 06:27:05 51°25.309 3°1.576 32.8 12.5 34 14.9
2009-06-16 06:27:10 51°25.324 3°1.59 32 12.5 31 14.9
2009-06-16 06:27:15 51°25.338 3°1.607 33.8 12.5 37 15.1
2009-06-16 06:27:20 51°25.353 3°1.621 34 12.5 32 15
2009-06-16 06:27:25 51°25.367 3°1.637 33 12.6 34 14.8
2009-06-16 06:27:30 51°25.382 3°1.652 33.2 12.6 34 15
2009-06-16 06:27:35 51°25.396 3°1.667 33.5 12.6 34 14.8
2009-06-16 06:27:39 51°25.408 3°1.679 33.6 12.6 33 14.5
2009-06-16 06:27:45 51°25.425 3°1.698 33.2 12.6 33 14.4
2009-06-16 06:27:50 51°25.44 3°1.713 33.6 12.4 33 14.3
2009-06-16 06:27:55 51°25.454 3°1.729 33.6 12.6 35 14.2
2009-06-16 06:27:59 51°25.466 3°1.74 33.2 12.6 32 14.2
2009-06-16 06:28:05 51°25.483 3°1.759 32.8 12.5 35 14.1
2009-06-16 06:28:10 51°25.498 3°1.774 33.6 12.5 33 14.3
2009-06-16 06:28:15 51°25.512 3°1.79 32.7 12.6 34 14.3
2009-06-16 06:28:19 51°25.524 3°1.802 33.3 12.5 35 14.2
2009-06-16 06:28:25 51°25.542 3°1.82 32.7 12.5 32 14
2009-06-16 06:28:30 51°25.556 3°1.836 33.5 12.6 36 13.5
2009-06-16 06:28:35 51°25.57 3°1.852 33.7 12.6 34 13.8
2009-06-16 06:28:39 51°25.582 3°1.863 31.9 12.5 32 13.6
2009-06-16 06:28:45 51°25.599 3°1.882 34 12.4 33 13.5
2009-06-16 06:28:50 51°25.613 3°1.898 32.6 12.4 33 13.6
2009-06-16 06:28:55 51°25.627 3°1.913 32.3 12.3 34 13.7
2009-06-16 06:28:59 51°25.639 3°1.925 33.5 12.4 34 13.4
2009-06-16 06:29:05 51°25.656 3°1.944 34.3 12.6 34 13.4
2009-06-16 06:29:10 51°25.671 3°1.959 33.1 12.5 33 13.2
2009-06-16 06:29:15 51°25.685 3°1.976 34.6 12.5 37 13.3
2009-06-16 06:29:20 51°25.699 3°1.991 34.7 12.5 34 13.2
2009-06-16 06:29:25 51°25.713 3°2.007 34.8 12.5 35 13
2009-06-16 06:29:30 51°25.727 3°2.024 35.8 12.4 36 12.8
2009-06-16 06:29:35 51°25.741 3°2.039 35.3 12.4 36 12.5
2009-06-16 06:29:39 51°25.753 3°2.052 35.2 12.5 35 12.7
2009-06-16 06:29:45 51°25.77 3°2.073 35.7 12.6 37 12.6
2009-06-16 06:29:50 51°25.784 3°2.088 35.7 12.5 35 12.6
2009-06-16 06:29:55 51°25.798 3°2.105 35.8 12.6 37 12.3
2009-06-16 06:30:00 51°25.812 3°2.121 35.7 12.6 35 12.4
2009-06-16 06:30:05 51°25.826 3°2.137 35.8 12.5 36 12.3
2009-06-16 06:30:10 51°25.84 3°2.154 35.7 12.5 36 12.4
2009-06-16 06:30:15 51°25.854 3°2.17 36.1 12.6 35 12.4
2009-06-16 06:30:19 51°25.866 3°2.183 36.2 12.6 36 12.4
2009-06-16 06:30:25 51°25.883 3°2.202 36.3 12.6 35 12.7
2009-06-16 06:30:30 51°25.897 3°2.218 34.8 12.5 36 12.4
2009-06-16 06:30:35 51°25.911 3°2.235 35.7 12.6 36 12.2
2009-06-16 06:30:39 51°25.923 3°2.248 36.3 12.6 35 12.1
2009-06-16 06:30:45 51°25.94 3°2.266 34.3 12.6 32 12.6
2009-06-16 06:30:50 51°25.954 3°2.283 34.7 12.6 36 12.2
2009-06-16 06:30:55 51°25.969 3°2.298 35.6 12.5 34 12.3
2009-06-16 06:30:59 51°25.98 3°2.311 34.9 12.5 34 12
2009-06-16 06:31:04 51°25.994 3°2.328 35.7 12.6 37 12
2009-06-16 06:31:10 51°26.011 3°2.347 35.9 12.6 35 11.8
2009-06-16 06:31:15 51°26.025 3°2.363 35.7 12.6 35 11.6
2009-06-16 06:31:19 51°26.037 3°2.376 36.1 12.6 36 12.2
2009-06-16 06:31:25 51°26.054 3°2.396 36.2 12.6 35 12.4
2009-06-16 06:31:30 51°26.068 3°2.412 36.1 12.6 35 11.6
2009-06-16 06:31:35 51°26.082 3°2.429 36.7 12.7 37 11.9
2009-06-16 06:31:40 51°26.097 3°2.445 36.4 12.6 35 12.2
2009-06-16 06:31:45 51°26.111 3°2.461 35.8 12.6 35 12.3
2009-06-16 06:31:50 51°26.125 3°2.477 35.5 12.7 36 12.3
2009-06-16 06:31:55 51°26.14 3°2.493 35.9 12.7 34 12.5
2009-06-16 06:31:59 51°26.151 3°2.506 35.4 12.7 34 12.2
2009-06-16 06:32:05 51°26.169 3°2.525 36 12.6 35 12.2
2009-06-16 06:32:10 51°26.183 3°2.541 34.7 12.6 36 12.5
2009-06-16 06:32:15 51°26.197 3°2.558 36 12.7 37 12.8
2009-06-16 06:32:19 51°26.209 3°2.57 36.2 12.6 34 12.7
2009-06-16 06:32:25 51°26.226 3°2.59 35.9 12.7 37 13.2
2009-06-16 06:32:30 51°26.24 3°2.606 36.7 12.6 36 13.3
2009-06-16 06:32:35 51°26.254 3°2.622 36 12.6 35 13
2009-06-16 06:32:39 51°26.266 3°2.635 35.9 12.7 36 12.9
2009-06-16 06:32:45 51°26.283 3°2.654 35.6 12.6 35 13.3
2009-06-16 06:32:50 51°26.298 3°2.67 35.7 12.6 35 13
2009-06-16 06:32:55 51°26.312 3°2.687 35.1 12.7 35 13.8
2009-06-16 06:32:59 51°26.323 3°2.699 35.5 12.5 36 13.8
2009-06-16 06:33:05 51°26.34 3°2.719 36.3 12.6 34 13.6
2009-06-16 06:33:10 51°26.355 3°2.735 35.1 12.6 35 13
2009-06-16 06:33:15 51°26.369 3°2.75 35.4 12.5 34 13.4
2009-06-16 06:33:19 51°26.381 3°2.762 34.8 12.5 34 13.7
2009-06-16 06:33:25 51°26.398 3°2.781 35.2 12.6 34 14
2009-06-16 06:33:30 51°26.413 3°2.797 34.7 12.6 34 14.1
2009-06-16 06:33:35 51°26.427 3°2.812 34.9 12.7 33 14.1
2009-06-16 06:33:39 51°26.439 3°2.825 34.5 12.7 34 13.9
2009-06-16 06:33:45 51°26.456 3°2.844 34.9 12.4 34 13.9
2009-06-16 06:33:50 51°26.47 3°2.86 35.3 12.5 35 14
2009-06-16 06:33:55 51°26.485 3°2.875 35.1 12.6 32 13.6
2009-06-16 06:34:00 51°26.499 3°2.892 35.5 12.6 36 14
2009-06-16 06:34:05 51°26.513 3°2.907 35 12.6 33 13.9
2009-06-16 06:34:10 51°26.528 3°2.922 34.2 12.5 33 14.2
2009-06-16 06:34:15 51°26.542 3°2.938 35.2 12.6 35 14.5
2009-06-16 06:34:19 51°26.554 3°2.95 34.2 12.7 32 14.1
2009-06-16 06:34:25 51°26.571 3°2.969 34.7 12.6 33 14.3
2009-06-16 06:34:30 51°26.586 3°2.986 34.6 12.6 35 14.4
2009-06-16 06:34:35 51°26.601 3°3 34.7 12.5 32 14.2
2009-06-16 06:34:39 51°26.612 3°3.014 35.7 12.6 36 14.4
2009-06-16 06:34:45 51°26.629 3°3.032 35.3 12.6 32 14.7
2009-06-16 06:34:50 51°26.643 3°3.048 34.6 12.6 36 14.9
2009-06-16 06:34:55 51°26.658 3°3.064 35.1 12.7 34 14.7
2009-06-16 06:35:00 51°26.672 3°3.08 35.1 12.6 34 14.8
2009-06-16 06:35:05 51°26.686 3°3.097 36.8 12.5 37 14.9
2009-06-16 06:35:10 51°26.701 3°3.111 34.9 12.4 31 15.1
2009-06-16 06:35:15 51°26.715 3°3.129 36.3 12.6 38 14.8
2009-06-16 06:35:19 51°26.726 3°3.141 36 12.5 32 15.1
2009-06-16 06:35:25 51°26.743 3°3.161 34.8 12.5 39 15.2
2009-06-16 06:35:30 51°26.757 3°3.176 36.7 12.5 31 15.4
2009-06-16 06:35:35 51°26.772 3°3.191 34.3 12.5 32 14.9
2009-06-16 06:35:39 51°26.783 3°3.205 35.3 12.6 37 14.8
2009-06-16 06:35:45 51°26.8 3°3.223 34.9 12.4 33 14.8